4XCWR LLHA-LLHA

Flight info

Callsign 4XCWR
Flight time 0h 13m
Altitude 1000
Route CVFR
Aircraft C172/L-S/C

Departure

Time 2026-04-25 15:50
Airport Uri Michaeli Haifa International Airport (LLHA)

Arrival

Time 2026-04-25 16:03
Airport Uri Michaeli Haifa International Airport (LLHA)
Time Latitude Longitude Altitude Speed Heading
2026-04-25 15:40 32.81128 35.04203 21 ft 0 kts 340°
2026-04-25 15:43 32.81131 35.04202 21 ft 4 kts 347°
2026-04-25 15:43 32.81157 35.04237 21 ft 2 kts 72°
2026-04-25 15:48 32.81159 35.04245 21 ft 11 kts 72°
2026-04-25 15:48 32.81138 35.04321 22 ft 12 kts 155°
2026-04-25 15:48 32.80981 35.04390 22 ft 35 kts 158°
2026-04-25 15:49 32.80774 35.04467 21 ft 16 kts 95°
2026-04-25 15:49 32.80766 35.04474 21 ft 0 kts 339°
2026-04-25 15:49 32.80865 35.04427 22 ft 41 kts 345°
2026-04-25 15:50 32.81285 35.04249 62 ft 78 kts 338°
2026-04-25 15:50 32.81789 35.04024 280 ft 77 kts 335°
2026-04-25 15:50 32.82314 35.03957 460 ft 84 kts 28°
2026-04-25 15:50 32.82802 35.04360 637 ft 86 kts 34°
2026-04-25 15:51 32.83136 35.05020 630 ft 104 kts 89°
2026-04-25 15:51 32.83093 35.05596 712 ft 109 kts 99°
2026-04-25 15:51 32.82858 35.06829 795 ft 118 kts 95°
2026-04-25 15:51 32.82832 35.07703 899 ft 105 kts 84°
2026-04-25 15:52 32.82898 35.08563 1036 ft 105 kts 77°
2026-04-25 15:52 32.83059 35.09360 1272 ft 98 kts 71°
2026-04-25 15:52 32.83271 35.10160 1365 ft 106 kts 69°
2026-04-25 15:52 32.83501 35.10995 1470 ft 105 kts 69°
2026-04-25 15:53 32.83728 35.11815 1598 ft 105 kts 68°
2026-04-25 15:53 32.83959 35.12624 1675 ft 99 kts 68°
2026-04-25 15:53 32.84108 35.13383 1777 ft 88 kts 75°
2026-04-25 15:53 32.84245 35.14150 1789 ft 101 kts 75°
2026-04-25 15:54 32.84429 35.14967 1835 ft 104 kts 60°
2026-04-25 15:54 32.84886 35.15635 1780 ft 104 kts 28°
2026-04-25 15:54 32.85392 35.15301 1685 ft 112 kts 285°
2026-04-25 15:54 32.85620 35.14474 1737 ft 102 kts 307°
2026-04-25 15:55 32.85940 35.14360 1948 ft 82 kts 39°
2026-04-25 15:55 32.86209 35.15436 1868 ft 112 kts 69°
2026-04-25 15:55 32.86567 35.16209 1953 ft 104 kts 20°
2026-04-25 15:55 32.86987 35.15671 1815 ft 122 kts 252°
2026-04-25 15:56 32.86201 35.15273 1743 ft 126 kts 199°
2026-04-25 15:56 32.85601 35.14741 1866 ft 98 kts 234°
2026-04-25 15:56 32.85152 35.14104 1755 ft 104 kts 236°
2026-04-25 15:56 32.84701 35.13397 1624 ft 107 kts 236°
2026-04-25 15:57 32.84176 35.12773 1260 ft 110 kts 225°
2026-04-25 15:57 32.83630 35.12148 1338 ft 106 kts 232°
2026-04-25 15:57 32.83210 35.11450 1465 ft 104 kts 245°
2026-04-25 15:57 32.82861 35.10673 1561 ft 106 kts 246°
2026-04-25 15:58 32.82579 35.09845 1568 ft 111 kts 256°
2026-04-25 15:58 32.82402 35.08936 1444 ft 114 kts 262°
2026-04-25 15:58 32.82254 35.08038 1387 ft 114 kts 262°
2026-04-25 15:58 32.82080 35.07083 1220 ft 123 kts 259°
2026-04-25 15:59 32.81843 35.06083 1086 ft 126 kts 253°
2026-04-25 15:59 32.81498 35.05146 1040 ft 122 kts 247°
2026-04-25 15:59 32.81234 35.04220 940 ft 108 kts 279°
2026-04-25 15:59 32.81680 35.03617 924 ft 99 kts 348°
2026-04-25 16:00 32.82095 35.03778 787 ft 104 kts 28°
2026-04-25 16:00 32.82526 35.04130 648 ft 117 kts 34°
2026-04-25 16:00 32.83070 35.05351 691 ft 107 kts 125°
2026-04-25 16:00 32.82461 35.05926 699 ft 117 kts 148°
2026-04-25 16:01 32.81749 35.06445 731 ft 116 kts 155°
2026-04-25 16:01 32.81013 35.06853 747 ft 120 kts 160°
2026-04-25 16:01 32.80199 35.07240 648 ft 127 kts 161°
2026-04-25 16:01 32.79400 35.07476 661 ft 113 kts 194°
2026-04-25 16:02 32.78716 35.07047 639 ft 113 kts 217°
2026-04-25 16:02 32.78120 35.06450 637 ft 104 kts 244°
2026-04-25 16:02 32.78200 35.05692 516 ft 100 kts 314°
2026-04-25 16:02 32.78730 35.05301 440 ft 90 kts 337°
2026-04-25 16:03 32.79345 35.05060 350 ft 95 kts 340°
2026-04-25 16:03 32.79837 35.04876 160 ft 59 kts 340°
2026-04-25 16:03 32.80194 35.04729 89 ft 56 kts 338°
2026-04-25 16:03 32.80519 35.04592 27 ft 44 kts 339°
2026-04-25 16:04 32.80762 35.04484 21 ft 42 kts 340°
2026-04-25 16:04 32.81096 35.04337 21 ft 47 kts 342°
2026-04-25 16:04 32.81157 35.04228 21 ft 14 kts 232°
2026-04-25 16:04 32.81131 35.04216 21 ft 5 kts
2026-04-25 16:05 32.81132 35.04216 21 ft 0 kts 357°